Showing default

ICEYE-X6, 46497

Orbit data source: Space-Track

ICEYE-X6, 46497 is a payload satellite owned by ICEYE (FI) in SSO that was launched on Mon, 28 Sep 2020 UTC via a SOYUZ-2-1B launch vehicle from the Plesetsk Missile And Space Complex (PKMTR). Payload-class satellites include a variety of spacecraft equipped with specific instruments for various scientific and technological missions. These include communications satellites like Starlink; space stations such as the ISS; scientific satellites like the Hubble; Earth observation satellites from companies like Planet Labs, Umbra, and HawkEye 360; GPS; miniature CubeSats for education and research; and military/defense satellites.

Loading next visibility...
Identifier
46497, 2020-068M
Orbit
SSO
Last TLE update
5 hours ago
Origin
Manufacturer
ICEYE
Mission
Operational Commercial Radar Imaging
Bus & Motor
ICEYE, Unknown motor
Mass
80 kg wet, 80 kg dry
Launch date (UTC)
2020-09-28 (5 years ago)
Launch vehicle
SOYUZ-2-1B
Launch site
Plesetsk Missile And Space Complex (PKMTR)
Object type
Payload
Rocket body
Debris
Shape & HBR
Box + 1 Pan, 3.25 m
Radar Cross Section
1.837 m², Medium (>0.1 m² and < 1m²)

Expand to show TLE details & history

TLE from 5 hours ago
0 ICEYE-X6
1 46497U 20068M   25129.19565508  .00004777  00000-0  38218-3 0  9994
2 46497  98.0525 100.6832 0006006  27.4711 332.6828 15.00693105252567
Epoch: 2025-05-09T04:41Z
Definitive object data (Epoch: 2025-05-09T04:41:44.598Z)
Latitude
-0.00007°
Longitude
162.99211°
Altitude
564.098 km
Speed
7.581 km/s
True Right ascension
06h 42m 43s
True Declination
0° 00' 00"
Sunlit
Object was in daylight at TLE epoch
Visualization TLE readout
Latitude
-61.46888°
Longitude
178.18672°
Altitude
588.339 km
Speed
7.565 km/s
Apparent Right ascension
06h 19m 09s
Apparent Declination
-52° 17' 28"
Sunlit
Object is in daylight
Visualization observer readout
Local Sidereal Time
17:22:26
Azimuth
213.513° SW
Elevation
-74.253°
Doppler factor
1
Orbital elements
Apogee altitude
565.946 km
Perigee altitude
557.61 km
Semi-major axis
6,939.915 km
Eccentricity
0.0006006
Inclination
98.0525°
RAAN
100.6832°
Arg. of periapsis
27.4711°
True anomaly
332.65119°
Mean anomaly
332.6828°
Eccentric anomaly
332.667°
Mean motion
3.75415 °/min
BSTAR
0.00038218
Orbital period
95.89 mins
Loading maneuver chart data...
Loading SW <> Apogee altitude chart data...
Loading historical data...
Loading historical data...
Loading historical data...
Loading historical data...
Loading historical data...
Loading historical data...
Loading historical data...

ICEYE-X6 Visibility forecast

Observer location: undefined°, undefined°

Span
Click to sort rows by Start time (UTC) header in descending order
Start Az.
Max El. time (UTC)
Max El. Az.
Max El.
End time (UTC)
End Az.
5 mins2025-05-09 10:05:08.628Z54.61° ENE2025-05-09 10:07:08.628Z89.376° E18.924°2025-05-09 10:10:08.628Z140.817° SSE
5 mins2025-05-09 11:40:08.628Z337.995° N2025-05-09 11:42:08.628Z296.622° NW25.511°2025-05-09 11:45:08.628Z235.994° WSW
6 mins2025-05-09 22:26:08.628Z194.553° SSW2025-05-09 22:28:08.628Z245.714° WSW36.296°2025-05-09 22:32:08.628Z335.024° NNW
|